This is the latest recevied weather packets stored in our database for station/object WC4PEM-11. If no packets are shown the sender has not sent any weather packets the latest 10 day(s).
| Time | Temp. | Humidity | Pressure | Rain* | Wind** | Luminosity | Snow |
|---|---|---|---|---|---|---|---|
| 1778015884 | 30° C | 49% | 1014.1 hPa | 0 mm | - | - | - |
| 1778015584 | 30° C | 49% | 1013.9 hPa | 0 mm | - | - | - |
| 1778015284 | 30° C | 49% | 1014 hPa | 0 mm | - | - | - |
| 1778014984 | 30° C | 50% | 1014 hPa | 0 mm | - | - | - |
| 1778014684 | 30° C | 49% | 1014 hPa | 0 mm | - | - | - |
| 1778014384 | 30° C | 48% | 1013.9 hPa | 0 mm | - | - | - |
| 1778014084 | 29.44° C | 48% | 1014 hPa | 0 mm | - | - | - |
| 1778013784 | 30° C | 48% | 1014 hPa | 0 mm | - | - | - |
| 1778013484 | 30° C | 47% | 1014.1 hPa | 0 mm | - | - | - |
| 1778013329 | 30.56° C | 46% | 1014.3 hPa | 0 mm | - | - | - |
| 1778013184 | 30.56° C | 46% | 1014.1 hPa | 0 mm | - | - | - |
| 1778012884 | 30.56° C | 46% | 1014.3 hPa | 0 mm | - | - | - |
| 1778012682 | 30.56° C | 46% | 1014.2 hPa | 0 mm | - | - | - |
| 1778012584 | 30.56° C | 46% | 1014.2 hPa | 0 mm | - | - | - |
| 1778012332 | 30.56° C | 46% | 1014.2 hPa | 0 mm | - | - | - |
| 1778012284 | 30.56° C | 46% | 1014.2 hPa | 0 mm | - | - | - |
| 1778011984 | 31.11° C | 47% | 1014.2 hPa | 0 mm | - | - | - |
| 1778011684 | 31.11° C | 46% | 1014.1 hPa | 0 mm | - | - | - |
| 1778011384 | 31.67° C | 45% | 1014.1 hPa | 0 mm | - | - | - |
| 1778011084 | 31.67° C | 46% | 1014.1 hPa | 0 mm | - | - | - |
| 1778010784 | 31.11° C | 45% | 1014.3 hPa | 0 mm | - | - | - |
| 1778010484 | 31.11° C | 45% | 1014.2 hPa | 0 mm | - | - | - |
| 1778010184 | 31.67° C | 46% | 1014.3 hPa | 0 mm | - | - | - |
| 1778009884 | 31.11° C | 45% | 1014.3 hPa | 0 mm | - | - | - |
| 1778009584 | 30.56° C | 47% | 1014.6 hPa | 0 mm | - | - | - |
* Rain latest hour (hover to see other rain measurements)
** Current wind speed in m/s (hover to see current wind gust speed)